GFSSGP_850_rhum_096.txt.gz
RH
54 57 55 50 63 45 42 28 18 16 18 15 15 17 26 52 70 78 57 64 76 67 61 60 64 69 72 70 68 68 67 58 47 44 28 29 30 52 85 80 56 32 27 26 21 14 17 22 26
55 83 66 47 63 49 37 23 20 16 15 16 18 17 23 60 56 60 59 69 75 60 56 59 65 70 72 70 70 70 66 56 49 47 26 29 31 30 30 29 27 24 21 18 17 22 28 35 42
56 81 59 56 54 49 34 22 16 17 20 18 18 17 27 57 64 66 63 79 85 74 58 60 66 71 70 71 71 73 68 55 52 60 40 36 34 22 16 15 15 16 16 20 27 40 47 57 64
64 76 68 58 49 38 33 19 18 24 21 19 18 32 70 76 65 72 68 78 86 89 82 62 70 72 71 73 74 75 71 66 57 70 65 62 47 25 15 15 15 18 22 26 44 50 56 62 69
74 78 78 65 47 34 27 20 20 27 23 20 18 40 81 71 79 73 71 75 82 89 88 77 80 80 78 76 77 76 74 70 72 86 78 68 58 36 17 16 20 26 30 33 44 49 52 59 63
91 75 75 68 47 31 23 19 20 24 22 20 19 41 92 71 79 75 71 72 81 84 90 88 85 82 79 78 80 80 82 84 74 68 90 74 63 49 24 20 23 28 32 34 40 42 44 48 50
99 85 76 55 44 33 25 18 20 22 24 26 32 32 95 84 80 74 69 69 78 78 83 85 85 85 84 85 84 81 88 94 89 54 84 84 66 60 42 25 26 29 32 36 40 41 40 40 42
97 94 70 50 47 34 24 21 19 21 26 28 42 53 91 86 88 80 70 78 85 84 79 83 84 85 89 87 85 86 95 93 82 44 55 88 79 76 58 46 33 30 32 34 37 39 39 39 42
76 98 84 64 41 30 21 24 22 21 29 34 53 61 84 81 84 84 85 95 89 87 83 80 88 82 87 86 86 93 92 80 64 57 44 42 81 84 74 71 57 40 32 29 32 36 38 40 41
76 91 72 48 35 28 31 23 23 28 32 42 67 69 80 85 87 88 84 88 82 84 90 85 91 85 89 90 84 91 92 83 69 57 41 36 36 71 77 57 55 50 46 39 36 33 31 37 43
66 76 57 48 37 52 51 33 23 28 37 38 60 74 86 86 87 89 77 73 85 81 91 83 90 92 96 86 85 88 91 78 81 58 54 73 70 60 99 68 62 49 41 45 46 45 45 45 66
68 52 48 45 68 78 59 53 51 31 28 32 48 75 91 91 86 82 82 78 92 77 79 83 92 87 92 80 87 87 90 89 91 83 67 76 74 69 77 74 58 49 53 52 50 78 74 58 48
57 44 40 42 55 66 62 53 51 54 34 28 42 66 78 85 75 80 83 82 80 76 78 79 94 92 91 89 86 83 84 86 85 78 66 65 73 52 69 82 78 68 76 72 74 93 93 72 70
58 49 40 40 55 67 62 56 51 52 39 33 41 48 59 69 63 88 80 82 92 82 82 82 86 93 83 98 91 84 81 83 87 84 63 66 72 76 75 81 88 90 94 94 95 86 73 80 76
74 65 46 52 61 73 68 60 72 56 38 34 35 40 41 53 64 70 72 70 75 80 82 83 89 93 96 86 92 88 87 84 85 88 73 59 68 76 79 84 88 86 87 80 75 82 76 61 70
88 64 80 58 50 59 69 79 49 52 44 38 35 36 39 45 48 58 55 55 70 79 84 88 81 89 93 91 91 95 90 86 88 91 87 71 72 64 62 72 81 70 79 67 69 61 53 51 59
97 90 77 52 40 39 59 60 38 35 34 40 38 34 38 42 42 44 62 65 71 81 82 88 87 82 84 91 95 93 98 91 92 94 93 91 86 84 73 68 72 69 71 64 63 61 61 68 69
90 96 60 49 39 46 42 43 32 27 30 31 35 33 32 40 40 40 40 75 85 87 82 83 88 93 88 89 93 96 92 94 89 90 85 90 89 84 85 88 87 84 75 65 60 64 66 64 71
75 62 56 40 35 42 50 46 37 29 29 31 33 33 30 31 33 37 39 41 84 83 90 80 80 82 95 97 91 89 90 91 93 90 88 84 85 97 88 81 94 99 89 78 75 75 72 66 68
99 94 56 45 38 44 50 51 36 32 34 32 31 30 29 28 31 34 40 40 79 75 75 75 68 81 77 74 72 87 88 91 87 91 90 87 86 92 97 88 93 100 98 94 89 92 79 75 74
92 91 67 75 45 50 44 55 44 31 32 32 33 30 27 27 29 33 42 42 72 82 85 77 70 74 69 70 79 78 87 92 94 90 81 83 88 86 81 82 80 84 94 92 84 86 84 78 82
85 63 65 52 63 100 65 89 76 54 37 37 33 31 29 27 28 31 42 44 66 79 74 71 81 81 70 72 80 73 75 79 82 89 93 89 86 85 82 81 79 78 81 78 80 81 77 78 78
80 81 72 79 62 55 65 66 63 46 39 35 33 31 30 29 28 29 40 42 50 71 71 59 68 84 82 75 71 76 74 72 72 74 70 75 73 67 62 68 68 63 58 60 67 78 83 76 89
82 77 74 82 85 98 74 55 40 36 35 35 30 29 31 30 31 32 41 46 45 55 71 64 61 67 71 64 63 63 64 65 73 71 67 63 66 72 68 64 70 69 58 57 59 62 74 72 83
98 99 99 98 98 88 58 56 40 28 27 29 29 30 30 28 31 35 46 51 51 54 49 63 67 72 63 64 61 55 52 61 60 65 67 66 73 68 61 68 67 65 42 46 48 52 68 89 96
99 100 98 86 90 62 46 89 44 27 26 26 27 26 27 27 31 37 44 45 45 48 43 45 46 46 46 50 55 58 56 63 65 56 66 57 60 52 50 54 50 46 44 40 38 78 99 100 99
100 100 90 99 52 74 49 30 27 33 35 29 29 29 30 30 30 37 40 47 43 43 46 43 42 40 37 41 42 57 73 68 62 63 65 74 68 64 60 76 67 45 35 33 37 48 63 98 97
97 94 97 99 96 91 50 42 40 38 35 35 33 31 31 31 32 35 36 38 45 44 44 43 43 44 42 38 40 44 45 49 59 49 49 59 57 52 45 37 35 32 33 37 42 47 50 72 96
98 93 95 79 77 83 70 50 33 40 36 34 31 30 31 31 32 32 35 38 44 48 44 47 48 50 47 44 44 44 40 44 48 50 47 42 38 36 34 37 39 40 41 44 43 43 48 64 81
65 71 73 96 73 93 88 57 38 39 36 34 38 38 35 32 36 35 35 41 50 55 54 56 58 56 57 54 49 46 48 42 38 38 38 37 38 39 44 46 48 50 51 51 52 56 84 99 98

GFSSGP_850_rhum_102.txt.gz
RH
60 58 68 73 80 82 80 59 36 28 24 18 19 43 47 57 53 64 91 84 77 71 71 71 70 70 66 61 56 41 35 29 49 95 94 94 97 90 88 77 52 23 17 12 15 27 49 69 69
66 59 69 79 90 87 60 48 32 29 19 34 50 56 61 76 72 85 98 81 76 68 85 75 71 71 64 60 53 40 36 24 29 88 95 95 90 86 81 51 22 16 13 19 24 53 78 81 78
60 68 84 97 93 68 43 40 29 24 19 21 42 57 63 76 80 74 78 88 77 71 93 92 74 70 64 63 51 41 31 25 24 32 85 88 87 79 36 20 15 15 22 29 42 74 80 80 77
77 76 80 92 89 64 45 32 24 23 19 21 48 93 67 72 87 59 80 85 70 76 81 90 72 68 67 67 49 45 29 23 24 24 26 30 28 20 16 14 17 24 35 42 62 76 81 82 64
81 84 92 90 80 58 48 32 26 28 24 20 53 87 89 70 70 68 84 84 65 67 85 88 72 69 70 71 51 49 46 38 32 23 14 14 12 12 13 18 28 41 46 49 60 70 64 62 56
87 82 99 95 75 58 44 34 29 28 25 23 75 87 82 80 67 74 81 85 63 64 80 76 82 80 78 71 64 58 63 56 45 30 13 12 12 15 18 21 32 41 44 45 51 56 53 54 55
94 91 92 88 74 59 49 34 38 32 26 33 64 89 88 97 70 65 75 78 65 62 74 77 88 90 78 71 68 64 79 80 61 44 20 16 18 21 24 27 31 34 36 37 43 46 44 42 50
74 83 90 85 83 65 42 32 28 32 29 41 54 97 95 92 89 74 84 72 61 68 76 86 89 89 82 78 76 68 80 91 85 56 31 20 21 24 27 30 32 33 33 33 36 38 37 40 45
75 97 88 79 72 61 39 36 28 28 33 50 58 71 73 76 88 77 88 76 60 73 84 88 85 85 87 84 84 83 78 79 89 73 47 27 22 24 28 30 31 33 34 33 34 36 37 40 46
84 86 73 62 65 61 62 38 30 51 68 82 67 77 79 92 87 86 86 65 83 82 86 86 85 86 89 90 91 87 69 60 75 71 61 45 31 26 25 28 29 31 31 33 34 35 36 36 43
81 80 60 69 67 72 72 63 48 58 72 80 80 80 87 88 89 98 89 56 92 92 90 88 87 90 88 86 90 80 50 44 42 52 62 54 47 38 29 26 26 27 27 26 28 29 33 37 39
78 71 62 78 85 89 80 74 67 51 61 73 47 60 77 73 83 98 99 90 92 88 82 88 88 90 90 84 87 80 49 53 42 35 34 48 51 46 41 37 32 31 31 33 34 36 40 42 46
86 72 65 66 90 92 86 76 66 53 58 69 56 59 62 69 75 87 95 90 92 90 81 84 86 85 85 85 88 84 63 61 42 38 38 36 35 41 40 49 45 42 40 41 44 51 61 58 49
72 74 69 62 92 90 92 81 82 66 60 71 62 54 60 66 65 76 83 92 87 85 79 82 80 84 86 85 82 82 69 72 67 54 49 52 50 48 41 40 48 49 53 53 64 70 67 67 65
68 82 68 61 83 88 90 91 80 76 67 65 67 58 57 59 66 74 83 92 84 80 77 77 79 80 85 82 78 81 72 70 75 76 59 47 48 47 38 45 56 66 69 73 71 69 70 72 70
84 82 86 74 79 88 92 92 74 82 79 69 70 71 58 67 60 68 75 84 77 78 79 76 76 80 82 78 79 80 81 75 71 78 71 51 46 50 52 58 60 76 72 75 77 77 72 70 66
92 98 94 78 72 86 80 88 80 78 82 76 78 69 71 61 65 66 76 80 77 77 78 82 81 84 87 81 80 75 78 81 81 81 78 75 54 51 55 62 70 79 80 83 82 83 74 68 65
96 98 96 84 72 82 83 75 84 90 87 88 84 69 66 77 57 68 77 76 76 81 78 76 80 82 87 84 84 78 76 82 86 83 86 78 73 58 59 68 77 81 86 84 77 67 68 67 65
100 94 86 65 61 79 79 65 86 90 88 88 82 74 66 64 45 51 74 75 76 77 78 79 82 79 79 75 88 90 84 89 90 86 88 85 81 82 78 70 67 71 71 72 69 71 71 70 70
100 88 98 76 54 68 76 74 73 88 86 87 79 78 70 57 54 45 46 58 75 75 76 79 79 80 79 72 78 84 89 88 86 86 88 86 86 84 84 84 81 74 77 80 84 80 73 73 80
100 88 87 85 70 72 70 80 77 71 74 84 82 81 61 48 48 47 46 43 54 64 74 82 77 81 79 75 78 80 89 89 87 83 84 86 89 90 87 95 94 90 79 64 70 73 73 80 83
95 87 80 78 94 99 82 96 85 85 60 53 68 72 51 53 38 44 42 43 48 45 53 65 68 70 80 84 80 74 72 79 80 84 88 89 90 91 96 96 90 87 92 76 77 79 74 80 79
100 89 82 75 86 78 93 81 70 63 60 46 39 47 44 36 32 32 42 42 40 42 43 52 67 65 68 76 78 75 77 77 78 86 89 89 97 100 99 95 96 100 96 96 97 89 85 84 80
88 95 84 86 88 96 91 79 61 63 53 43 39 38 35 32 31 30 33 42 42 44 47 52 57 68 76 74 76 78 78 79 80 76 82 94 94 92 88 89 81 77 95 98 90 88 87 86 82
99 99 98 98 98 95 95 96 72 49 44 38 39 36 34 34 32 30 35 46 48 47 46 49 50 65 64 72 75 77 80 83 81 77 78 78 72 71 70 71 70 61 66 67 84 85 77 76 71
100 100 97 95 96 96 74 90 58 39 35 38 37 34 33 33 32 31 30 41 50 51 48 47 54 58 62 71 73 78 80 79 72 70 72 73 71 69 71 76 76 78 79 75 81 81 90 82 81
100 99 95 90 72 90 91 61 39 39 41 40 39 35 34 33 32 31 31 32 43 45 47 50 49 52 57 61 74 79 74 71 70 69 66 64 63 62 58 61 62 62 64 59 56 63 58 57 56
95 90 95 94 85 92 74 50 47 40 41 43 43 36 31 30 30 30 31 33 38 41 44 48 48 58 56 68 72 69 57 53 55 57 60 62 64 61 58 62 68 69 68 64 68 76 61 46 39
92 95 94 86 90 87 83 60 47 55 38 42 40 37 36 34 30 31 32 36 42 45 47 47 48 54 66 74 71 66 64 61 63 61 60 60 63 64 68 73 76 77 76 61 46 38 38 39 40
70 73 88 90 89 98 88 70 42 52 48 47 47 43 38 35 37 34 31 35 47 50 48 48 46 48 51 49 48 50 56 58 61 69 62 50 48 44 40 46 44 41 42 42 45 45 46 47 49

GFSSGP_850_rhum_105.txt.gz
RH
87 67 63 74 95 90 84 69 46 32 28 29 22 38 53 47 51 62 86 81 73 72 68 75 72 68 60 54 42 32 38 88 91 88 86 86 90 92 86 64 43 20 12 16 42 51 67 76 72
67 67 62 86 98 98 73 54 47 38 22 27 29 54 59 69 65 89 97 80 74 68 68 74 77 66 59 56 39 32 37 86 90 91 93 93 89 86 76 53 20 11 14 25 36 57 73 75 67
66 72 82 99 98 84 47 51 29 25 23 34 51 61 62 81 79 90 88 82 73 67 70 76 84 66 61 52 38 34 28 82 91 94 99 94 88 79 63 20 12 15 20 33 66 76 69 64 48
77 76 90 99 82 72 45 38 29 26 21 21 43 80 70 76 85 75 77 91 75 69 72 83 76 62 62 48 37 27 22 43 88 94 97 87 83 61 20 12 16 22 30 58 67 58 55 55 42
83 87 94 95 81 58 52 35 25 25 22 23 53 82 84 91 88 80 73 85 72 82 81 85 77 64 62 48 38 21 22 22 34 74 84 74 39 17 13 17 25 33 45 59 59 47 50 50 40
90 80 96 96 89 61 55 40 33 29 25 35 69 90 90 83 78 95 84 78 76 91 92 86 84 68 65 43 45 27 25 22 20 22 22 16 14 14 20 28 36 41 49 54 48 45 43 46 40
85 96 85 71 87 74 58 41 40 31 27 27 59 92 92 97 94 91 90 80 80 93 94 88 92 81 67 48 54 45 40 32 16 12 11 12 14 17 25 32 36 40 45 46 43 44 42 41 41
75 94 82 72 80 84 54 46 36 30 27 31 55 95 97 99 94 99 90 90 85 93 93 84 88 86 73 76 62 74 59 44 23 13 13 16 19 22 27 29 31 34 37 41 43 41 40 46 44
69 90 86 74 67 75 56 46 37 31 28 47 63 63 77 82 98 96 91 94 86 96 88 86 88 87 78 78 71 86 80 62 35 18 18 20 23 25 28 30 30 31 34 36 36 37 41 45 48
78 89 75 60 54 67 79 64 40 39 47 62 64 69 81 95 98 92 61 64 91 92 86 91 90 86 83 77 75 85 92 78 47 28 20 22 24 27 29 32 33 34 35 37 39 39 40 45 53
73 82 76 59 60 76 91 88 65 51 48 65 76 87 69 59 96 85 68 47 87 90 88 93 93 91 89 86 89 72 78 79 64 41 29 23 24 26 29 30 32 35 36 37 39 38 41 43 50
88 69 72 70 67 66 86 94 78 58 62 54 69 40 56 59 96 100 97 62 49 82 86 93 93 97 90 89 86 77 60 65 68 53 42 34 28 26 26 27 29 30 31 32 33 35 38 44 49
96 64 64 67 61 95 89 92 82 58 54 58 64 52 56 62 75 100 100 75 68 75 89 84 89 94 91 89 86 68 50 44 47 54 56 45 38 34 33 32 33 34 34 35 37 38 44 48 48
92 71 59 62 72 79 91 89 94 78 56 57 64 57 53 59 69 99 99 100 82 57 77 86 89 85 89 83 72 65 47 47 40 32 34 44 49 45 41 42 44 46 46 48 48 56 65 68 60
93 94 76 63 66 87 92 89 96 88 62 75 70 67 61 59 68 78 69 54 51 49 75 92 92 84 88 84 81 75 53 52 36 32 33 37 39 43 46 49 49 57 58 59 60 67 66 66 64
98 83 83 63 67 83 89 99 87 90 67 77 75 72 70 69 66 66 61 68 72 74 74 89 86 85 82 87 83 80 66 60 50 43 42 43 49 47 41 40 52 67 69 71 73 76 74 72 66
100 96 96 73 70 91 84 97 86 98 83 79 76 70 67 72 68 69 67 68 74 83 82 82 82 81 87 84 80 77 68 64 55 62 62 59 47 46 50 54 61 72 77 79 78 79 80 78 79
98 92 93 79 82 82 89 84 86 94 95 90 80 67 63 64 72 69 68 68 73 84 80 78 78 78 84 83 82 80 78 74 74 70 74 73 71 58 53 60 67 72 77 82 85 83 82 81 76
100 98 91 76 74 85 90 77 83 85 85 94 82 68 64 61 63 69 73 68 80 83 86 79 81 83 88 84 85 86 84 87 84 87 85 85 78 72 65 58 63 71 76 82 84 82 80 74 72
100 98 95 81 68 77 84 81 75 84 80 98 92 73 67 60 58 66 71 76 67 76 81 81 80 76 79 82 88 82 83 85 84 86 83 87 88 79 80 80 80 78 77 79 79 74 67 66 74
99 90 99 82 86 83 80 92 91 93 88 83 88 77 66 66 56 58 64 70 77 77 80 81 79 76 79 77 80 71 79 85 79 84 86 86 87 84 79 81 86 86 91 86 85 86 90 71 81
96 78 79 85 89 100 91 99 95 90 89 86 86 76 62 56 55 51 55 60 66 66 72 77 76 78 75 74 72 72 72 76 53 75 76 87 86 85 85 87 88 92 81 83 82 90 94 82 84
100 79 80 92 99 96 98 86 73 84 86 87 78 74 59 56 52 47 46 52 45 55 66 68 71 74 77 73 76 76 75 76 73 81 91 90 86 87 90 96 86 78 78 83 84 80 100 96 93
96 93 83 96 100 95 90 80 69 84 63 62 59 66 66 57 47 43 37 47 44 48 50 57 62 67 73 77 78 74 78 78 78 85 92 85 77 80 81 88 75 78 79 73 84 87 65 80 80
100 84 97 98 97 93 86 77 58 57 48 46 48 47 53 61 49 36 34 32 42 47 47 48 53 56 66 68 74 77 83 81 75 75 71 70 69 66 66 68 69 75 80 88 97 92 84 84 80
100 100 92 95 97 97 90 82 56 43 39 39 38 39 41 39 38 35 30 29 33 44 52 50 49 52 58 65 64 66 73 73 74 75 70 69 68 68 70 70 75 86 89 87 86 90 86 84 90
100 98 96 85 78 91 89 71 42 40 43 40 42 38 36 32 34 35 31 31 37 43 49 47 48 50 53 60 64 68 68 69 71 73 70 69 69 68 66 64 76 82 73 72 78 75 68 63 70
97 93 96 94 82 94 83 60 53 54 48 47 48 44 36 34 36 34 32 31 32 42 47 51 49 50 51 53 58 59 67 75 79 74 72 71 67 60 63 64 62 65 71 77 76 71 71 77 69
90 95 93 84 89 87 85 60 45 58 53 45 49 40 38 35 35 33 32 32 31 35 48 52 56 55 52 60 62 73 81 82 68 68 68 68 64 64 64 67 68 66 73 77 74 67 52 43 42
69 74 87 90 90 94 89 75 48 54 55 50 52 49 41 39 36 31 32 32 33 36 50 58 50 47 52 54 63 74 78 69 64 65 66 67 67 70 70 58 52 49 46 43 42 42 45 49 52

GFSSGP_850_rhum_111.txt.gz
RH
76 50 59 66 78 89 72 64 55 38 31 32 34 50 49 50 49 50 52 67 68 68 76 86 70 66 65 53 47 40 29 53 57 62 70 75 82 85 77 56 58 97 97 87 77 75 50 47 71
82 67 66 84 95 86 68 58 54 42 30 30 33 52 54 41 52 70 90 77 81 69 79 85 72 66 60 44 36 31 32 54 57 68 72 81 84 81 64 37 49 84 95 75 68 65 48 34 42
89 82 72 88 87 87 66 53 49 39 34 35 34 51 49 62 69 59 89 78 83 73 78 82 72 65 50 37 32 68 55 58 70 74 77 81 83 72 49 18 55 69 78 65 53 36 29 25 22
91 87 76 96 80 62 66 40 42 37 33 27 34 38 43 37 56 63 88 94 83 77 78 80 72 60 44 33 52 85 86 79 79 80 90 92 79 63 20 12 22 69 64 55 38 28 25 23 23
93 86 88 84 73 59 58 50 44 35 31 25 28 36 45 44 47 52 72 99 88 78 82 82 70 56 45 33 75 86 89 87 88 96 96 85 72 39 12 15 30 56 51 40 34 30 27 27 27
83 76 92 86 69 51 52 57 55 47 44 30 42 53 42 58 42 59 82 100 97 81 88 85 70 55 44 32 68 84 92 92 93 98 84 76 58 15 12 21 44 50 42 37 34 31 32 32 34
82 88 81 70 66 56 55 64 58 56 51 43 37 59 55 53 42 50 85 99 99 89 91 91 73 58 42 33 48 81 91 93 92 99 74 68 20 12 18 30 44 48 41 37 37 36 41 42 41
78 83 73 71 72 68 45 43 58 61 55 49 46 51 58 48 64 44 85 99 99 90 93 92 73 60 42 34 33 70 92 94 99 82 71 26 13 18 26 38 41 42 38 37 40 40 45 47 49
80 84 76 68 77 64 47 44 54 55 56 51 49 53 53 45 61 49 84 99 99 93 96 93 76 60 41 24 25 39 81 90 68 66 35 14 18 26 32 39 38 40 40 41 42 43 45 46 50
82 85 67 48 48 56 52 51 52 55 58 65 62 46 52 86 55 55 69 100 99 96 98 91 80 61 44 28 26 25 34 50 36 22 15 16 23 30 33 38 40 44 47 44 42 44 45 51 52
85 82 53 53 50 61 66 59 51 70 71 72 64 75 70 67 74 64 79 98 97 94 96 95 85 66 50 44 41 29 18 16 14 15 15 23 31 36 38 40 43 39 43 41 40 42 45 48 51
93 77 70 55 56 61 63 69 66 58 63 49 66 74 73 98 98 79 65 98 99 97 94 94 90 78 61 80 52 39 20 16 16 17 20 30 34 38 39 40 41 38 39 40 39 40 41 44 48
84 72 72 71 74 65 64 68 67 68 67 56 60 59 71 72 94 97 68 81 99 92 93 91 89 80 71 86 83 60 38 19 19 22 24 32 34 36 37 37 38 37 37 39 40 41 41 44 50
80 83 74 77 74 74 63 58 75 77 79 76 63 70 72 69 85 99 85 80 77 90 88 90 85 84 78 71 84 78 53 30 22 25 29 32 35 33 34 35 36 36 37 38 37 39 43 50 54
94 100 92 74 77 71 66 69 66 70 75 82 74 67 71 70 81 99 76 69 72 64 79 89 77 80 79 71 78 89 85 60 38 26 28 31 33 33 33 33 33 32 32 35 39 42 49 64 71
94 89 86 60 70 67 68 74 59 68 79 83 72 72 83 66 73 94 96 84 95 80 68 85 80 69 81 79 75 76 80 79 69 52 41 36 32 32 31 32 34 39 43 46 50 54 65 71 72
85 89 74 62 66 64 72 68 69 78 93 80 68 85 100 88 69 76 84 94 85 85 91 88 55 59 78 84 82 80 75 69 73 75 70 55 50 48 46 48 56 55 59 60 62 64 71 75 76
94 96 84 79 70 64 79 66 86 93 85 82 93 93 92 99 69 68 81 86 85 81 72 67 30 38 70 82 91 87 68 52 51 52 51 57 58 53 54 57 63 63 71 72 72 75 80 82 79
91 95 94 73 62 75 83 64 67 90 92 91 90 86 79 97 81 65 77 87 82 81 87 70 52 92 84 78 88 86 72 47 58 52 42 43 50 58 61 59 59 66 70 72 83 89 89 88 84
90 97 87 71 64 73 68 68 69 89 85 90 94 91 68 91 87 76 70 81 90 79 80 61 78 99 99 92 92 87 84 62 60 50 59 67 65 64 60 61 66 70 74 78 85 91 93 89 84
91 97 93 85 77 74 76 98 96 87 88 94 98 88 73 96 82 95 75 68 77 91 79 78 98 99 99 84 84 87 93 94 85 80 83 82 80 78 77 74 72 73 78 82 86 90 94 87 76
97 94 100 79 99 99 96 99 95 91 88 90 91 86 88 98 78 87 76 78 79 76 86 99 98 98 98 98 78 82 84 89 84 77 76 86 84 78 84 87 87 88 91 98 94 94 92 78 70
100 100 98 88 100 100 97 84 100 85 92 87 85 92 95 89 69 77 84 77 83 89 87 98 99 76 91 99 86 73 72 69 75 80 82 77 76 75 90 79 95 92 93 76 87 90 82 85 83
97 96 95 84 91 97 98 75 87 93 83 77 80 92 96 75 65 59 68 74 79 82 86 88 93 83 72 89 97 92 86 80 77 80 71 67 68 76 82 76 99 86 85 76 81 87 98 93 97
100 85 91 90 94 96 95 74 64 69 69 66 74 95 79 70 64 47 50 64 61 71 80 80 86 90 91 80 74 85 85 93 80 76 62 64 72 76 72 81 87 83 84 85 88 90 86 86 95
100 86 92 87 92 92 71 86 62 48 47 56 63 71 75 72 61 50 41 41 62 72 75 77 84 80 80 82 83 100 99 89 91 92 74 88 85 84 83 83 90 88 77 78 81 77 78 89 89
99 92 96 85 76 81 84 56 45 44 47 50 51 71 78 71 56 42 39 39 44 58 61 56 59 68 73 78 80 89 81 83 88 86 87 87 78 76 78 79 72 68 74 72 66 66 70 75 78
90 88 91 90 85 91 73 71 72 61 62 58 54 63 84 73 59 54 39 38 45 49 64 66 63 64 67 72 73 75 77 78 76 76 74 72 70 71 73 70 67 67 65 65 71 79 82 82 83
91 93 85 83 84 82 78 93 53 63 65 68 66 54 72 71 62 53 45 38 42 56 60 62 55 58 58 61 64 63 65 66 69 72 78 75 76 76 73 68 66 66 66 64 60 57 54 49 45
75 86 90 86 88 90 84 88 52 58 67 67 72 62 59 72 60 50 49 39 39 49 62 59 57 55 52 54 56 59 61 66 72 80 81 79 78 77 70 67 66 66 54 43 42 43 42 44 46

GFSSGP_850_rhum_114.txt.gz
RH
84 79 73 75 54 46 41 34 27 25 26 24 28 28 29 30 36 43 55 83 82 89 98 79 63 55 55 56 52 48 46 49 68 62 75 74 83 97 89 69 88 81 73 59 81 80 83 78 71
92 82 70 59 58 42 37 28 34 29 22 26 24 29 39 33 49 87 73 81 92 90 100 97 65 58 56 53 49 47 44 45 57 61 70 81 91 94 68 75 68 85 80 76 48 43 63 63 59
91 84 52 44 52 43 31 26 31 28 27 28 24 26 29 32 61 75 68 81 98 94 99 96 69 65 63 51 44 36 31 45 54 64 74 84 96 76 47 68 80 77 70 70 47 32 35 34 28
85 81 63 64 41 31 29 23 31 33 27 25 26 25 31 50 57 83 56 74 100 99 99 94 70 68 62 45 32 30 54 65 66 76 79 87 88 58 31 82 83 78 60 48 31 27 24 23 24
85 69 57 51 38 26 22 24 30 30 27 25 24 24 24 50 44 43 61 83 100 100 99 98 74 69 56 39 39 50 67 70 78 77 85 81 70 38 30 85 78 64 51 34 27 25 24 26 28
68 56 57 53 38 28 23 25 37 31 27 30 26 23 25 59 50 43 65 97 97 100 100 97 78 67 47 36 74 78 72 75 79 85 97 81 61 17 18 78 66 55 38 32 29 28 28 31 34
60 53 51 41 37 32 29 27 34 33 34 34 33 25 25 62 82 55 38 78 99 99 99 98 81 60 43 64 84 88 84 85 89 97 91 75 40 14 24 72 61 46 35 34 32 33 36 38 38
64 60 58 45 42 38 28 30 30 34 41 40 40 34 30 50 89 62 37 56 97 96 100 95 100 62 51 79 90 93 92 94 95 99 84 66 17 17 52 68 56 44 37 37 39 40 43 43 42
61 66 62 46 38 35 31 30 32 32 39 43 44 47 44 50 87 98 62 54 94 99 96 97 100 94 90 75 89 96 97 98 98 99 74 32 17 32 71 88 54 46 42 42 43 45 45 46 45
58 58 48 33 29 31 30 42 40 40 31 39 51 48 55 69 84 96 92 49 87 100 100 100 99 95 89 94 90 100 100 100 100 91 68 54 71 90 98 87 67 51 48 45 43 43 46 53 54
54 60 36 34 35 37 37 40 43 45 49 39 41 46 62 72 95 98 99 85 88 98 98 100 100 98 90 89 98 100 100 100 98 98 82 83 88 94 96 99 95 56 54 51 51 50 52 55 74
59 45 44 43 41 42 43 42 42 45 44 43 43 46 62 64 76 98 95 99 97 99 97 98 99 100 87 88 85 95 99 99 96 94 90 87 95 95 97 98 98 66 84 54 45 56 49 51 57
54 44 43 45 52 53 51 45 44 44 47 54 50 53 57 62 69 84 98 92 67 63 99 97 94 96 90 89 85 87 90 93 90 88 88 76 64 94 95 93 94 92 66 46 43 47 48 54 59
45 52 55 54 54 58 55 49 45 46 50 62 65 62 62 58 64 70 68 98 73 62 99 92 86 96 98 94 86 81 85 87 91 89 91 58 83 92 92 86 79 61 46 45 46 48 46 46 65
56 64 55 50 54 59 56 62 54 38 44 60 69 62 53 56 62 75 77 95 84 84 97 89 82 82 96 84 89 85 59 69 81 74 91 93 94 73 47 44 45 44 42 42 42 42 54 78 66
57 57 70 31 38 49 61 70 41 38 37 49 64 64 55 52 59 77 82 86 86 84 70 88 88 83 97 57 76 50 31 28 47 61 69 68 56 44 41 41 40 41 41 37 38 44 65 90 80
68 76 45 36 30 42 60 62 41 46 41 43 56 60 68 56 62 72 81 73 89 59 66 80 86 94 96 66 73 82 70 45 32 43 42 38 41 42 41 42 40 37 39 46 53 58 79 79 81
58 71 56 51 41 56 56 55 48 63 67 68 64 67 70 65 69 72 92 76 98 72 78 98 72 90 96 79 72 83 95 90 69 44 34 33 36 36 38 40 43 50 62 64 66 70 80 87 85
69 78 75 50 42 51 80 55 48 69 72 67 72 72 76 66 68 68 86 80 100 90 98 100 90 88 97 86 78 82 79 81 95 96 85 57 51 51 57 65 74 77 76 78 84 88 88 86 79
68 72 72 52 43 51 60 64 43 52 65 67 72 72 75 71 69 63 91 99 82 97 95 82 99 92 95 86 74 79 87 84 67 67 64 63 66 70 68 70 72 72 76 84 85 88 87 86 71
70 84 73 75 74 56 61 69 56 75 74 73 70 69 80 65 68 63 86 99 79 93 94 93 92 100 98 91 72 86 91 81 61 59 54 53 49 56 66 71 74 72 78 81 81 85 89 82 74
91 85 99 98 98 97 56 85 83 79 85 75 72 76 83 74 68 72 86 100 93 95 100 99 99 99 99 99 79 74 79 79 50 56 50 52 62 67 70 72 77 77 80 84 84 84 81 74 72
97 99 100 99 99 100 87 86 100 93 91 76 65 71 72 84 82 79 85 99 85 94 92 100 96 97 99 81 95 81 95 80 71 67 61 73 80 82 80 81 79 81 84 87 80 71 60 70 82
97 100 100 100 100 96 85 71 99 95 71 65 59 70 80 91 82 85 94 96 84 93 74 90 100 99 98 100 96 94 96 87 77 76 76 82 80 75 84 94 92 94 96 93 86 79 77 75 87
92 93 82 93 93 95 94 62 74 54 64 66 64 74 97 90 93 71 91 86 86 92 79 72 78 77 85 97 98 100 100 90 80 82 78 82 85 81 76 84 84 97 97 80 89 84 81 93 96
99 93 89 90 91 93 73 86 82 45 44 45 71 78 96 93 80 63 77 84 75 85 89 86 78 90 82 72 93 97 97 95 96 88 89 94 93 86 80 78 84 90 90 92 92 89 92 91 94
92 89 95 80 63 70 92 65 47 45 49 46 77 88 99 94 79 66 54 76 90 92 86 90 91 86 88 89 95 84 79 87 99 89 82 84 94 86 81 73 89 98 98 91 83 79 75 80 81
88 95 90 77 75 88 85 89 90 62 63 56 82 90 99 94 67 53 57 58 87 81 82 74 91 93 90 96 96 79 71 90 76 89 82 87 84 74 79 97 100 96 78 78 69 64 66 72 74
85 83 76 66 66 66 76 93 58 64 65 61 72 93 98 86 80 64 47 59 64 82 78 69 80 88 86 88 79 76 72 86 83 82 91 81 84 85 81 99 83 71 65 61 62 68 74 78 74
67 77 75 78 71 72 62 91 44 51 61 61 66 94 87 78 74 69 60 49 76 73 68 67 67 67 68 70 79 80 78 81 86 83 80 80 83 83 82 72 66 66 65 66 64 57 49 46 47

GFSSGP_850_rhum_117.txt.gz
RH
35 65 53 60 50 38 34 28 19 19 17 15 18 22 23 23 28 67 64 64 62 80 86 46 50 58 70 71 71 72 75 73 70 72 82 80 84 83 73 72 72 73 56 52 86 88 89 72 54
74 62 53 39 44 40 28 19 21 18 19 18 19 20 24 26 32 59 64 70 67 80 97 74 53 54 62 68 69 70 71 67 69 69 82 74 84 85 78 81 70 57 69 79 87 83 90 62 48
75 65 44 34 41 41 26 16 16 16 21 20 20 20 22 25 30 50 62 63 72 81 89 100 59 56 55 58 56 52 52 58 62 63 79 79 92 94 79 66 80 83 62 45 71 65 57 49 36
61 58 51 42 30 23 25 18 14 18 22 23 21 20 18 20 25 49 47 62 74 82 86 98 65 55 54 53 51 50 48 53 58 66 77 85 98 83 73 80 80 77 66 36 42 41 32 27 27
60 50 48 37 31 22 17 15 17 17 23 24 24 21 18 22 59 71 43 45 74 84 89 96 73 58 60 56 51 48 48 51 62 72 78 87 98 64 69 80 70 68 58 31 26 25 25 25 27
51 45 46 42 31 21 16 15 15 17 19 22 22 21 19 20 60 82 54 58 83 93 92 96 93 66 63 53 39 39 59 62 70 75 84 93 70 65 77 82 73 55 36 27 25 25 27 30 33
47 42 42 32 27 22 19 17 18 17 19 21 20 22 22 20 52 82 73 39 66 89 91 96 91 75 66 47 37 62 69 69 78 81 91 88 52 46 76 79 66 47 32 27 27 28 32 36 37
47 41 43 35 33 31 21 19 20 21 20 21 21 23 27 22 45 75 91 46 41 73 88 94 95 89 71 50 66 73 74 81 85 90 100 78 31 43 84 70 74 44 34 30 30 34 37 39 38
49 53 57 45 36 28 21 21 21 21 23 22 22 25 30 39 56 80 90 86 46 67 79 97 94 99 95 73 86 82 80 85 90 95 96 62 27 68 91 86 64 43 38 38 40 41 40 42 41
50 50 41 28 26 26 22 22 21 22 24 23 23 30 40 43 55 69 94 92 59 54 72 97 95 87 86 93 88 91 91 94 98 97 93 57 67 95 99 88 61 48 46 48 49 50 49 47 45
51 58 37 32 28 28 28 28 27 26 32 35 24 24 39 47 56 72 88 92 67 48 58 87 96 80 80 94 87 96 97 98 96 98 90 72 83 96 97 99 73 58 55 51 53 52 57 88 85
49 39 36 34 33 35 36 34 30 29 31 30 35 34 28 37 46 70 91 99 91 61 56 77 90 78 73 92 89 98 99 99 96 98 82 70 81 92 98 95 80 64 65 58 55 69 87 86 82
37 34 35 34 33 35 36 38 37 34 31 29 32 42 46 43 47 62 68 80 98 73 63 62 96 80 69 79 86 94 98 95 96 98 70 72 80 87 98 99 98 95 91 88 87 82 85 82 78
37 35 34 33 36 39 39 38 38 37 35 32 33 38 42 48 50 70 64 69 80 98 79 69 98 83 71 72 85 87 90 84 87 87 80 91 89 86 92 98 99 94 92 89 82 79 80 80 78
37 42 35 33 32 34 37 47 44 38 34 33 34 37 40 49 54 64 60 67 77 86 96 78 94 84 74 74 72 77 90 96 84 84 92 95 94 91 92 93 92 92 92 83 78 76 75 76 81
48 46 58 31 25 24 33 69 39 35 38 34 32 40 44 48 53 53 55 63 58 74 99 69 96 88 81 77 76 75 81 81 83 84 93 97 93 93 95 93 93 93 85 82 78 73 74 88 96
47 65 42 32 19 21 31 67 40 36 35 34 32 30 38 48 51 50 54 60 55 73 99 91 95 93 87 87 86 80 79 84 85 87 92 93 92 96 93 90 88 86 81 78 75 74 87 95 95
54 59 45 39 28 36 60 58 41 33 34 32 31 31 37 48 60 54 61 56 52 79 91 82 68 92 96 91 93 91 85 84 89 90 89 94 93 91 88 85 84 78 74 74 70 91 92 98 96
49 55 60 40 30 34 36 46 62 37 41 41 37 42 43 54 57 58 64 51 52 86 73 100 94 97 92 91 99 94 86 80 79 77 80 74 82 78 71 79 86 80 73 89 76 77 71 75 73
46 52 50 39 34 40 44 44 35 38 49 56 53 51 61 57 58 58 60 54 72 89 67 100 85 99 92 86 98 96 86 85 76 65 66 50 67 57 60 84 91 91 97 98 86 83 78 80 73
54 63 61 60 53 59 66 54 41 39 42 46 56 57 55 56 57 55 59 56 92 75 72 74 95 99 96 93 100 99 99 98 93 89 87 85 84 72 61 97 98 90 79 92 78 74 77 82 95
93 55 89 89 94 88 48 74 56 42 48 54 50 56 59 58 57 59 60 58 84 80 72 86 83 99 96 97 99 99 97 94 94 91 96 95 89 88 78 85 63 62 59 72 74 76 75 85 94
89 83 100 100 100 98 72 95 71 43 68 65 59 63 61 63 59 67 73 66 98 83 73 85 99 98 90 97 98 97 98 83 74 73 72 68 66 56 54 61 67 71 76 80 82 82 83 86 90
92 100 100 100 100 91 68 90 99 99 89 66 66 65 72 82 80 84 78 78 92 83 64 99 98 99 96 89 94 99 99 98 85 82 94 79 64 54 71 76 74 74 80 82 84 87 81 82 91
87 98 97 97 97 81 94 92 100 88 72 76 77 86 94 92 90 81 76 94 98 87 67 89 97 99 91 79 96 99 99 91 95 60 64 68 71 73 76 80 82 82 85 91 88 70 65 82 85
98 94 97 95 92 80 52 87 99 72 55 73 78 94 97 90 76 69 84 99 92 85 76 75 81 99 93 98 100 99 100 100 100 83 85 80 88 98 94 88 84 79 80 75 68 63 78 98 98
86 88 83 96 94 77 94 97 85 62 69 78 85 96 98 83 80 73 79 100 90 81 86 85 91 91 88 90 81 84 92 88 82 88 84 78 85 98 89 89 84 78 73 75 73 87 97 99 97
94 86 89 87 93 91 91 89 96 90 89 87 87 97 100 93 88 87 96 100 99 88 81 89 89 73 68 93 81 91 86 80 79 79 78 92 81 91 95 92 81 84 74 71 91 98 88 90 73
92 81 70 65 60 93 83 94 94 77 76 89 88 100 100 99 88 90 100 100 100 96 96 91 97 100 99 100 95 89 80 87 71 81 84 96 86 82 91 94 92 78 74 90 90 80 68 66 68
68 70 66 93 67 69 61 96 59 59 71 81 89 100 98 100 88 91 100 100 100 80 81 82 99 94 96 88 97 92 89 88 91 100 98 78 81 78 67 80 93 96 91 92 86 70 69 71 68

GFSSGP_850_rhum_120.txt.gz
RH
20 54 50 51 69 58 51 43 28 27 23 15 14 16 21 21 28 61 64 64 65 74 70 54 65 63 57 66 70 73 73 69 69 78 74 78 78 74 74 78 80 75 62 87 90 91 46 61 67
68 62 53 45 65 62 46 29 27 23 18 16 18 16 19 25 36 51 67 66 73 76 72 60 66 64 58 66 69 72 74 70 69 77 76 80 80 74 75 72 75 60 80 87 85 80 55 43 45
51 63 52 51 51 52 39 25 21 17 15 16 19 18 19 21 31 50 48 39 60 70 77 56 66 65 67 69 71 73 75 73 68 74 79 75 81 74 72 66 57 56 77 82 78 78 38 35 50
60 57 56 59 41 32 32 26 22 18 16 18 19 20 19 19 22 44 53 56 58 73 79 53 64 69 72 70 72 71 71 67 66 74 81 74 85 79 66 69 64 61 70 73 51 36 31 29 28
60 53 63 55 45 31 23 19 17 17 16 18 22 24 20 19 33 55 49 63 70 79 80 76 57 65 69 66 62 57 52 56 62 70 77 84 94 70 59 82 79 53 39 50 34 28 27 27 27
54 47 63 63 48 30 22 18 16 15 14 15 23 23 22 21 39 63 55 59 74 74 77 78 73 62 64 61 55 51 48 52 59 67 80 87 93 62 81 84 73 54 32 28 26 25 26 29 32
59 57 57 44 37 29 22 17 18 18 17 16 15 26 21 22 44 48 51 70 78 71 72 75 77 69 62 61 58 53 53 53 56 76 84 90 88 63 79 76 60 45 27 25 24 27 31 35 38
49 53 59 49 44 38 24 21 21 20 19 18 18 21 24 21 28 53 78 71 82 62 77 74 79 78 74 68 56 49 67 69 63 82 90 93 75 74 81 78 52 34 27 25 28 32 36 37 39
45 63 67 52 43 36 26 25 21 20 20 20 20 21 20 24 37 45 72 81 82 78 76 75 72 82 79 67 48 56 73 73 80 88 98 92 58 82 87 75 52 34 29 28 33 37 38 39 40
52 63 56 37 31 31 27 26 25 23 22 20 20 20 21 23 36 46 52 64 82 90 76 78 70 75 76 78 60 69 75 77 89 97 99 85 46 88 86 80 60 38 34 35 39 42 44 42 42
52 66 49 42 37 35 34 33 29 28 33 26 24 28 27 24 26 41 59 58 68 84 72 87 77 79 88 87 80 79 82 88 94 91 100 51 54 90 86 87 86 43 44 44 48 49 54 54 53
56 45 44 42 36 35 37 33 36 35 32 28 28 30 30 33 36 36 46 57 66 100 91 70 84 82 98 83 92 92 93 92 93 90 95 52 80 86 86 85 56 46 49 52 51 58 78 87 84
39 35 33 32 32 34 34 35 37 36 34 33 32 30 29 32 38 44 59 55 65 82 97 91 68 76 96 82 80 100 95 96 86 92 70 72 83 85 86 82 61 56 54 54 56 68 85 83 79
41 38 36 34 35 34 35 38 38 37 35 35 35 34 32 30 33 43 50 63 72 66 89 99 87 85 66 97 76 99 99 98 94 92 72 73 88 81 93 88 69 66 81 67 74 84 76 80 78
38 46 40 36 32 34 32 41 42 36 36 36 36 34 33 32 33 39 43 49 75 68 68 94 100 86 60 93 70 99 98 87 94 87 72 71 88 78 96 89 72 82 90 88 80 77 77 71 78
55 54 68 41 33 29 34 57 37 33 35 36 35 35 33 32 33 35 44 53 52 75 64 81 81 96 69 100 80 87 96 93 88 82 72 76 86 85 93 95 86 90 92 86 76 73 70 77 69
65 82 62 46 29 26 28 41 34 27 33 37 37 36 34 31 33 41 48 52 54 64 58 63 85 90 71 98 84 82 87 91 82 86 74 82 88 92 80 87 92 94 85 81 70 61 59 78 79
77 75 57 52 35 33 37 36 41 44 40 44 43 37 34 32 31 38 47 54 60 58 52 54 77 100 85 88 79 80 94 89 87 84 80 69 88 91 94 93 92 87 75 67 57 50 66 77 78
64 69 71 46 33 35 38 38 34 34 38 50 48 38 34 32 30 36 55 58 54 48 45 50 79 100 90 82 77 75 77 83 84 82 91 84 93 92 93 89 79 73 57 49 44 50 63 79 88
49 57 59 45 38 42 54 67 43 39 39 49 48 42 36 30 34 47 57 57 55 46 44 54 74 100 91 92 79 75 77 84 86 85 93 96 94 91 78 78 75 62 54 48 53 60 65 75 81
56 63 62 60 47 54 66 74 62 51 45 42 48 53 53 52 53 56 57 62 58 43 39 59 78 99 100 90 81 75 79 84 88 94 86 94 90 75 80 77 61 56 57 54 61 74 77 80 97
87 56 63 78 94 94 57 89 69 53 44 46 49 59 54 56 55 55 55 62 60 47 48 72 88 89 99 89 86 78 78 85 82 83 82 85 83 80 80 71 67 49 64 66 74 83 86 89 99
91 79 91 99 99 99 79 98 83 48 50 49 53 50 55 54 56 56 56 61 67 67 77 73 82 95 99 86 90 95 93 85 73 73 78 77 86 78 70 74 54 53 69 73 80 75 73 84 91
72 92 97 99 96 97 71 96 99 99 97 85 54 56 67 71 63 60 61 71 86 77 81 82 73 65 82 100 85 82 91 90 86 87 85 90 85 88 88 77 64 72 72 71 70 72 78 81 79
86 99 97 98 100 93 100 95 99 98 93 93 77 92 93 85 80 76 80 77 99 85 82 90 77 94 80 79 97 78 85 62 70 81 91 93 95 93 87 77 70 73 71 73 73 80 74 57 57
97 100 98 96 97 93 100 97 98 97 87 92 96 98 91 85 77 78 80 81 100 81 96 99 92 96 100 86 98 92 84 71 77 86 93 90 85 69 60 65 78 77 80 82 77 69 63 62 59
91 99 98 99 90 85 98 94 90 93 95 87 94 95 99 94 86 77 79 87 100 83 78 77 69 72 81 98 95 97 99 89 99 95 88 89 72 59 71 85 87 88 87 80 69 66 64 69 57
98 87 99 99 96 95 96 97 98 100 100 92 95 97 100 99 99 95 79 99 97 77 79 70 60 62 77 97 96 94 98 97 90 98 97 94 92 89 91 93 90 90 81 76 74 64 63 62 81
94 96 83 94 84 96 95 98 98 100 98 96 96 99 100 100 100 100 100 98 98 76 68 87 77 76 78 92 92 92 81 74 78 98 92 99 91 91 92 89 88 86 84 86 82 56 67 90 93
65 98 65 95 96 99 96 98 84 93 93 89 96 99 100 100 99 99 100 100 100 99 100 95 97 100 99 98 92 97 88 79 97 98 98 94 90 93 86 91 92 93 88 88 83 68 65 83 85

GFSSGP_850_rhum_123.txt.gz
RH
29 40 52 53 78 84 84 73 49 42 26 21 18 18 20 22 32 52 74 71 69 62 58 51 70 64 62 64 70 70 68 63 70 66 68 74 66 76 71 78 49 74 89 91 42 68 74 74 71
57 59 53 50 86 87 76 47 43 34 24 20 18 18 20 23 39 53 74 65 65 63 55 48 60 66 61 67 70 72 70 66 72 70 70 76 70 76 69 78 57 83 86 88 55 51 58 56 54
68 66 56 67 76 77 65 35 36 25 20 17 19 18 19 23 47 42 59 54 61 67 63 47 60 66 61 66 72 73 71 67 67 77 70 80 74 75 67 66 53 82 83 84 60 39 40 46 68
63 60 59 75 65 50 43 36 27 23 17 15 16 22 19 19 28 45 54 57 50 57 65 56 51 62 67 67 71 76 74 70 68 78 74 75 76 75 78 57 48 80 79 78 46 35 39 52 61
64 60 82 81 66 50 38 30 25 24 19 16 15 22 21 26 39 54 58 56 52 65 68 62 44 54 64 70 68 75 76 74 66 76 76 72 78 75 71 49 52 74 68 44 28 27 27 26 32
63 56 86 92 69 47 37 26 25 22 18 16 15 18 22 31 26 42 54 61 62 48 64 69 48 45 61 73 72 72 76 72 67 74 79 79 79 71 73 69 51 59 57 34 28 28 28 29 45
67 77 80 62 55 44 35 26 23 24 24 21 18 21 16 21 39 38 60 64 64 60 66 73 64 53 51 66 74 70 66 62 62 70 79 85 85 53 86 83 60 38 41 29 26 27 30 35 51
56 67 70 67 65 56 32 29 28 25 24 21 20 23 20 27 35 60 56 66 64 71 68 68 74 56 53 51 61 66 56 54 63 75 84 89 92 56 87 83 66 40 28 25 27 31 36 39 45
52 74 80 68 60 50 33 33 28 26 25 23 22 21 20 20 21 22 59 57 73 77 78 74 76 66 59 52 53 75 78 69 68 82 87 94 93 57 90 72 60 34 27 26 31 37 39 41 47
55 80 67 51 44 44 38 38 36 33 31 28 24 21 20 24 28 33 30 50 75 75 80 82 84 82 65 56 57 61 65 67 72 84 90 98 85 69 83 70 49 31 26 30 36 40 41 42 52
56 70 56 51 49 46 45 40 36 38 43 36 31 29 26 28 29 32 55 40 42 62 77 89 91 84 79 67 64 49 62 71 74 84 94 100 75 84 87 71 46 33 29 35 41 43 42 46 62
70 54 52 50 46 45 46 38 38 35 35 34 35 35 32 31 30 30 34 43 56 46 65 79 89 96 91 79 69 46 67 83 78 85 96 100 69 84 86 66 40 33 34 40 46 50 59 61 78
54 47 45 43 39 40 35 40 40 37 33 32 31 32 33 30 34 31 35 40 64 57 48 62 82 97 92 92 75 54 71 83 74 92 98 99 64 84 82 72 43 38 42 47 54 65 71 75 76
47 44 42 38 37 35 38 37 35 35 35 38 37 34 30 29 33 33 35 38 41 54 58 53 76 85 98 92 86 74 75 76 87 94 93 88 53 81 82 69 47 44 47 52 57 60 67 78 80
51 60 54 48 42 45 38 47 43 34 31 32 32 35 39 37 30 35 33 39 40 47 54 59 56 83 89 99 82 94 94 85 87 93 97 63 56 83 80 64 57 50 50 56 66 71 71 70 74
66 65 79 48 43 41 44 61 39 31 34 35 35 35 36 34 30 34 33 32 38 40 47 55 58 74 98 84 76 74 96 95 86 97 89 68 51 83 80 66 61 67 70 74 66 76 65 67 72
77 96 79 60 42 42 43 50 35 29 32 40 36 36 36 37 36 32 34 32 34 37 49 48 48 57 82 88 89 89 99 90 88 99 80 75 57 82 85 82 64 82 82 87 68 61 58 60 67
88 90 75 68 46 48 52 48 37 32 32 36 39 40 40 43 40 36 32 32 35 48 53 46 46 46 62 96 94 85 99 94 95 90 75 74 78 77 85 88 79 79 92 85 63 56 58 61 73
70 79 87 66 49 46 47 45 40 37 41 38 38 35 43 42 36 40 35 31 44 46 49 49 49 45 63 88 99 99 100 99 100 88 79 77 84 79 86 88 80 82 92 70 56 54 55 73 85
65 71 64 48 39 47 52 60 50 48 51 50 42 43 44 42 40 43 34 33 47 52 56 55 57 48 48 84 87 96 85 100 90 86 71 78 84 80 82 79 80 91 84 67 49 48 59 88 84
66 75 66 63 51 55 66 77 66 52 47 45 48 46 47 50 45 37 34 33 43 43 57 52 51 45 43 98 100 99 94 98 89 86 83 78 82 80 90 90 92 90 72 46 44 50 61 68 81
77 57 64 71 92 96 71 88 59 55 61 55 49 44 55 53 51 50 39 44 44 49 65 57 51 59 58 95 100 94 94 95 90 89 80 71 80 82 91 92 90 75 52 47 48 58 61 71 80
85 78 91 96 98 98 83 97 79 89 73 58 59 59 46 49 50 49 51 50 54 60 68 52 56 59 64 76 100 88 90 81 79 81 87 77 83 92 93 90 73 57 55 58 58 58 70 74 88
72 83 89 97 99 98 72 92 91 98 96 90 82 72 57 53 53 53 55 54 54 63 69 82 95 78 84 59 99 91 83 82 84 82 87 94 95 95 87 77 65 64 70 68 60 65 71 72 82
91 100 96 95 98 92 95 98 90 98 97 83 83 83 69 66 62 61 57 58 58 66 88 100 87 85 80 81 97 93 80 80 82 85 83 95 94 87 86 79 85 81 73 69 68 72 74 79 85
98 99 97 96 96 97 100 97 99 96 95 91 91 99 93 87 78 73 72 69 64 80 99 94 100 99 96 59 94 99 95 83 68 78 80 77 81 76 75 78 86 70 80 82 78 78 81 86 76
90 100 98 100 96 97 95 93 96 90 94 86 93 97 100 91 82 70 72 72 68 99 99 81 87 86 74 65 66 69 96 93 82 72 64 70 73 77 76 79 91 92 82 80 80 83 82 68 65
98 95 97 99 96 96 92 97 97 98 99 94 93 96 99 99 99 79 72 75 83 100 100 92 85 72 79 77 94 84 76 93 92 80 82 76 74 72 90 94 100 87 84 83 87 84 78 76 71
98 100 98 98 97 100 96 97 99 100 100 97 94 93 100 99 99 76 68 82 99 99 92 80 81 81 66 81 100 88 99 95 93 83 78 83 72 70 81 90 86 88 88 89 82 77 75 63 63
70 84 77 95 93 96 98 98 95 97 96 97 97 98 100 100 100 92 78 100 98 92 87 77 78 72 76 91 97 99 80 92 91 99 96 84 76 79 84 82 94 96 92 91 76 74 72 72 75

GFSSGP_850_rhum_126.txt.gz
RH
33 52 55 54 68 89 90 75 57 50 32 26 23 22 23 20 28 45 54 61 62 61 62 68 63 61 57 60 63 63 63 63 65 67 68 67 62 60 37 34 37 33 45 79 84 89 77 70 64
54 52 48 53 84 90 67 62 49 40 27 18 17 18 22 24 52 61 65 62 62 63 60 64 68 65 56 54 60 64 63 64 69 68 71 68 66 58 65 45 81 91 59 72 81 78 72 63 62
68 58 49 70 87 81 64 46 40 27 23 18 18 19 20 24 46 55 59 61 64 65 60 58 69 67 60 58 61 62 60 61 70 70 74 70 81 58 78 64 86 89 85 49 56 58 56 54 52
61 62 62 82 76 63 50 38 35 28 22 19 16 19 17 43 35 60 55 58 66 65 63 58 66 68 60 63 66 65 64 59 73 74 76 75 80 70 71 61 81 84 84 48 41 44 51 61 54
61 64 83 87 81 58 44 36 30 29 24 21 18 17 16 63 73 52 56 60 60 63 66 64 64 68 66 65 71 69 66 63 67 78 78 78 78 76 60 56 80 83 74 49 38 46 61 62 57
64 63 92 92 72 53 47 34 35 29 25 24 20 19 18 37 51 73 61 58 61 65 72 70 63 62 62 67 69 74 72 67 64 78 80 78 78 76 57 46 76 76 57 32 36 39 42 44 48
73 82 85 76 66 57 45 32 27 30 28 25 22 24 21 26 30 38 67 65 67 70 72 71 71 66 61 66 67 72 77 73 66 73 82 77 79 74 61 44 63 65 42 32 29 28 33 59 58
59 75 78 73 71 66 39 37 32 30 29 25 23 26 24 27 28 23 22 77 75 73 67 75 69 71 64 63 68 72 76 76 68 73 85 82 81 67 73 55 42 54 36 28 28 30 40 61 59
54 79 91 73 63 57 38 42 37 37 32 34 28 23 25 27 32 24 25 23 70 72 81 80 77 73 74 70 71 76 73 69 70 78 81 90 90 64 84 77 40 32 31 27 29 34 42 54 54
58 85 73 56 50 52 51 50 46 38 38 36 35 28 27 28 26 28 31 40 34 73 81 84 85 82 75 77 78 79 75 67 70 80 83 94 93 68 87 82 56 28 26 27 33 38 43 50 61
61 78 59 52 48 48 53 50 45 39 42 36 36 33 27 32 33 29 28 35 46 40 53 85 79 80 87 76 73 74 77 77 69 77 87 94 95 72 94 82 63 31 26 30 38 40 43 54 65
70 58 56 54 51 54 55 49 48 40 38 34 34 33 33 33 34 33 30 29 31 39 42 52 83 78 86 88 73 69 79 76 72 67 88 99 97 77 88 70 50 30 27 34 40 40 45 58 68
57 50 46 45 41 40 38 44 46 43 36 35 34 33 32 32 31 34 32 29 31 37 43 50 60 82 79 94 88 71 71 73 70 70 70 96 98 78 73 70 46 29 30 39 42 42 47 62 70
52 54 51 48 47 44 45 42 39 37 35 34 32 32 33 30 28 34 36 30 29 40 38 48 54 55 81 82 95 89 68 61 75 74 66 91 97 72 66 67 45 32 32 41 44 45 52 64 76
57 63 58 48 45 50 42 51 47 36 34 34 32 30 28 28 25 27 36 37 28 30 42 38 45 56 52 78 88 97 72 58 84 82 86 90 96 72 57 59 44 34 40 47 54 63 70 74 78
67 68 78 47 44 43 50 63 43 36 36 35 32 34 33 28 28 25 25 31 36 29 39 45 43 46 52 62 86 100 89 68 75 92 92 91 97 72 53 55 44 39 45 51 53 61 71 81 80
77 96 83 67 46 49 51 62 42 32 35 36 32 31 30 33 31 29 26 30 33 30 30 43 40 40 46 57 64 92 86 98 82 89 92 95 97 67 48 56 45 43 49 52 54 62 66 72 74
85 94 79 76 53 52 61 60 49 44 41 37 33 32 31 32 30 31 31 36 36 36 32 32 36 41 44 43 60 85 96 90 100 96 94 96 91 57 77 65 51 49 55 52 63 64 75 67 73
75 83 89 68 55 62 63 57 45 38 40 40 36 34 33 35 26 28 31 34 35 40 33 32 34 51 49 41 41 70 80 81 87 99 99 99 78 56 85 77 59 52 60 57 63 72 66 66 77
83 91 86 63 46 50 53 56 47 45 46 46 47 46 43 38 35 28 30 29 35 37 36 32 44 52 47 39 40 47 64 77 87 76 96 100 77 70 90 84 60 61 70 71 85 66 64 68 81
82 87 80 69 54 63 70 80 72 56 53 49 48 48 50 45 40 34 32 38 40 37 36 43 52 45 48 43 47 45 60 62 88 94 97 98 86 77 86 82 69 68 78 82 78 62 55 51 76
90 61 65 70 96 97 70 91 61 54 77 65 70 62 53 52 47 36 36 47 39 36 34 48 46 43 56 49 48 50 48 54 96 85 100 95 90 88 74 79 79 65 78 78 72 60 47 50 62
81 69 83 82 98 98 86 97 80 86 86 83 80 81 80 52 42 43 48 47 45 36 36 43 42 52 65 59 59 56 72 52 98 99 100 96 90 93 74 74 81 77 81 75 74 56 48 55 67
68 83 89 93 98 98 80 91 84 92 96 92 89 75 79 79 56 47 50 49 49 36 33 48 58 60 64 72 68 68 56 77 100 100 99 98 95 87 78 81 79 80 89 88 74 52 52 63 71
95 99 98 91 98 91 91 98 85 95 95 95 95 83 79 88 64 51 51 52 52 54 52 59 62 64 65 77 83 74 63 100 98 91 92 98 91 87 86 82 89 91 90 84 61 56 69 75 78
98 99 97 100 97 93 95 94 90 91 94 97 94 88 85 94 85 69 60 57 57 54 57 62 63 71 85 95 90 83 85 100 99 97 90 89 82 82 84 83 85 90 86 71 59 75 83 87 90
96 100 94 99 96 97 93 82 84 73 88 92 96 95 98 96 88 82 75 65 60 55 61 63 71 96 96 91 82 91 96 100 98 99 88 83 79 80 76 77 88 88 77 64 76 89 88 91 90
98 91 97 99 97 94 88 96 97 96 97 95 95 96 96 98 95 84 71 59 68 66 69 84 89 96 89 93 76 61 68 87 100 91 87 80 86 81 80 89 86 75 72 81 92 93 96 92 94
98 99 98 98 98 97 96 96 99 100 99 98 95 97 98 98 97 88 74 70 68 77 95 97 91 84 88 91 76 73 58 83 89 90 93 85 85 86 84 82 79 77 83 82 91 95 94 96 87
76 98 87 98 92 93 98 98 93 96 97 100 97 98 100 100 97 82 78 79 82 98 95 88 86 88 90 97 91 92 100 97 84 83 94 90 81 82 86 77 76 72 85 82 92 98 98 94 86

GFSSGP_850_rhum_129.txt.gz
RH
25 47 60 55 57 88 87 68 64 50 35 26 19 22 23 21 24 38 50 65 64 63 66 65 61 64 65 61 59 57 57 58 64 67 65 64 53 25 27 75 64 53 77 83 83 88 93 74 64
48 50 55 56 64 63 42 68 55 42 27 19 20 19 23 23 37 50 60 58 64 63 64 63 68 74 69 66 62 57 55 57 63 67 67 63 54 32 32 36 35 76 86 85 85 87 69 72 67
48 51 44 67 82 65 39 55 39 30 23 18 18 17 21 47 52 66 62 62 64 66 57 58 66 82 72 70 66 64 58 60 65 68 70 66 55 32 40 77 73 61 72 80 87 71 63 56 58
61 48 58 75 74 66 49 43 35 30 24 22 20 19 18 52 72 74 70 60 65 69 62 60 66 69 67 68 69 68 62 62 68 68 73 74 67 70 69 89 90 79 52 57 62 56 47 44 53
61 62 84 87 78 63 47 41 33 32 27 24 22 20 24 36 42 82 70 73 65 70 67 67 73 71 64 63 76 70 66 66 69 72 77 80 69 78 60 80 82 77 47 48 49 43 45 48 48
61 65 88 82 72 56 54 42 35 30 30 26 23 23 32 31 49 50 68 71 81 76 70 72 82 73 65 65 72 70 70 66 74 74 77 80 78 70 57 78 78 73 48 37 40 49 44 42 45
75 82 85 79 69 58 48 34 30 33 32 28 24 25 23 27 30 26 34 74 75 80 84 76 82 78 71 64 70 70 67 64 70 79 80 80 81 76 52 66 77 69 36 31 41 46 35 40 50
61 78 86 75 66 64 43 38 34 33 33 27 25 28 28 28 28 32 23 44 80 82 82 87 81 80 76 72 74 74 74 69 62 78 86 82 80 78 57 54 73 58 29 27 29 31 32 47 53
60 86 94 78 72 59 45 52 43 42 37 36 33 28 29 29 25 24 25 24 73 84 85 83 86 82 75 75 76 79 79 78 70 72 84 85 84 81 58 49 60 48 34 29 28 31 38 46 51
63 88 82 62 55 53 52 52 50 44 42 41 38 32 33 32 30 27 26 29 35 58 86 82 89 88 83 77 77 79 82 83 78 80 81 85 86 80 70 57 45 51 34 29 30 35 41 44 48
64 80 63 54 51 50 56 56 50 46 53 40 37 34 33 34 33 31 27 27 30 35 48 77 84 87 89 83 77 82 86 86 81 81 86 78 84 84 79 81 46 38 32 28 32 37 41 43 49
74 63 58 57 53 56 60 50 53 49 49 43 40 36 34 33 33 33 30 27 27 30 35 43 58 84 82 92 86 82 88 88 81 80 86 81 88 89 80 83 55 31 27 29 35 38 42 48 54
59 54 50 48 46 44 42 47 46 44 39 37 35 35 34 33 31 31 32 30 27 27 30 35 43 52 83 87 90 88 90 84 78 80 83 85 86 89 68 85 73 34 27 31 37 39 44 55 60
59 58 55 49 47 47 52 48 45 40 37 37 36 34 34 32 30 30 30 31 27 26 26 30 38 47 52 83 86 92 85 83 81 79 84 87 84 89 75 69 70 37 27 34 39 38 44 60 69
59 64 62 52 46 52 44 57 56 41 37 35 32 28 26 23 23 25 23 25 25 22 24 25 32 40 46 49 83 88 90 83 83 78 81 80 96 89 89 55 60 34 27 37 42 44 56 70 75
71 68 77 47 45 43 48 55 42 32 30 33 33 31 29 28 25 23 26 27 25 25 20 21 26 39 43 48 52 87 90 94 85 78 79 86 96 98 94 60 58 35 29 39 45 46 56 72 75
79 94 83 69 49 50 60 63 49 38 36 40 38 33 30 29 27 25 23 26 27 24 24 18 21 33 53 38 46 59 93 97 96 90 79 84 91 94 98 68 55 37 31 41 48 56 64 71 74
84 98 82 85 54 53 64 62 50 46 47 47 45 43 39 35 30 24 21 23 23 28 29 27 20 28 49 45 38 51 67 88 100 93 79 81 84 93 95 79 66 42 34 45 55 58 65 71 77
67 80 90 75 59 69 71 65 51 43 43 45 44 42 40 37 35 34 31 22 22 25 37 35 32 28 33 49 46 48 52 59 68 100 79 91 87 79 96 90 68 52 36 43 53 62 71 76 78
84 94 91 72 59 59 59 60 52 52 51 48 47 46 46 45 42 39 36 30 24 25 29 33 37 34 32 36 43 49 44 48 58 82 87 84 90 83 92 97 70 59 42 49 56 65 73 77 77
88 96 86 81 63 66 75 81 65 53 53 49 52 60 66 64 56 48 44 38 28 26 27 29 32 35 32 33 46 51 48 46 61 87 91 96 90 98 92 98 78 69 52 46 54 63 65 65 70
97 69 74 80 91 97 67 94 70 69 77 69 69 70 81 83 75 59 51 45 32 24 29 34 36 36 33 33 52 48 44 47 52 78 75 76 91 98 99 98 77 68 66 55 60 63 63 63 60
77 66 71 84 98 98 87 98 80 76 84 76 85 81 84 89 81 78 56 40 30 30 36 46 42 35 32 38 52 44 46 53 40 52 81 78 78 82 94 91 97 86 74 56 71 69 75 67 58
62 83 93 99 98 99 79 92 85 94 92 80 88 96 96 88 77 79 55 43 39 44 47 47 41 36 52 55 48 47 58 61 61 55 80 99 95 81 85 88 90 80 74 65 74 73 79 68 60
94 98 98 94 96 89 87 97 82 88 73 89 95 96 96 96 78 86 63 54 52 51 48 50 37 36 51 51 50 56 62 69 64 60 67 88 86 77 90 98 90 83 94 77 80 79 82 74 57
99 97 96 98 97 96 92 86 79 81 68 78 86 91 99 94 96 89 75 63 56 50 48 53 36 40 46 54 54 59 57 72 87 80 87 86 87 76 85 92 95 81 84 83 78 79 84 75 60
97 100 95 97 95 98 93 78 63 65 79 79 88 95 96 100 96 92 83 74 57 53 50 50 54 55 58 62 60 63 63 93 99 87 91 93 100 84 87 87 95 85 80 85 86 89 90 74 62
98 96 98 98 96 95 86 94 96 95 96 94 94 96 97 97 99 92 88 88 80 69 58 57 56 59 66 63 62 61 69 92 96 99 94 100 99 100 90 83 93 87 80 82 89 92 86 68 75
99 100 98 90 93 98 97 92 98 99 98 98 95 97 98 100 91 77 74 76 75 76 76 70 74 76 72 77 87 87 88 94 87 75 100 99 100 99 91 93 82 81 82 85 90 89 73 72 84
81 94 90 95 88 85 98 94 77 95 96 98 96 98 100 99 99 85 78 76 79 71 77 82 79 78 84 96 100 97 90 79 75 76 100 99 90 84 81 79 76 80 87 84 89 82 68 81 88

GFSSGP_850_rhum_132.txt.gz
RH
26 50 61 52 51 74 71 61 69 51 38 32 23 24 24 23 24 35 58 67 65 72 73 58 58 62 66 65 62 62 66 72 76 72 66 60 34 38 71 66 37 65 77 77 81 89 82 68 62
34 59 57 53 47 40 25 66 65 45 28 21 22 20 25 25 54 65 80 81 78 72 70 64 58 68 65 66 64 65 66 65 71 68 65 57 34 36 54 45 58 79 75 76 84 98 67 62 52
42 58 46 57 68 38 25 57 44 32 23 21 20 20 29 72 77 84 92 84 78 83 66 66 60 68 69 68 68 67 65 65 67 68 67 61 37 28 45 44 74 79 76 76 80 70 68 60 54
52 50 54 66 48 55 43 47 35 31 26 23 21 19 47 35 39 58 82 79 82 79 78 67 73 74 72 70 67 65 65 65 67 71 69 64 38 31 35 55 72 78 69 60 58 63 57 41 53
51 47 84 76 64 59 51 42 35 33 28 26 23 21 44 34 38 42 74 99 94 82 76 84 80 80 77 72 67 66 64 66 70 71 73 69 49 50 80 86 64 57 56 44 43 43 40 44 42
58 61 74 60 61 58 53 43 38 31 31 27 24 24 41 33 40 37 81 89 91 88 77 82 82 79 77 74 67 68 64 63 71 77 79 77 79 63 78 86 83 65 48 38 32 31 42 43 39
68 74 64 66 57 53 48 36 33 35 33 29 26 26 32 29 30 31 40 80 84 85 88 83 80 81 79 75 70 71 68 64 71 76 82 84 77 72 63 77 79 60 40 33 31 32 35 39 43
62 72 81 73 57 51 46 39 36 35 35 29 27 29 26 28 25 25 31 39 82 84 88 92 90 86 84 79 72 76 72 68 74 78 80 86 80 74 56 69 76 67 37 33 36 32 31 42 43
60 83 91 69 67 47 49 49 45 43 41 36 33 33 30 29 27 25 23 27 68 84 86 89 92 93 89 82 76 78 78 74 70 82 86 83 81 82 56 52 73 59 34 36 33 32 36 43 40
67 87 78 64 60 55 52 52 49 47 43 42 39 37 34 33 30 29 26 24 29 61 87 88 87 89 93 91 84 77 79 81 76 80 89 89 82 79 65 50 70 49 30 33 30 31 41 43 39
68 81 66 56 53 55 60 59 52 49 58 46 41 38 38 35 32 30 28 26 25 28 43 73 87 89 88 91 92 85 82 83 84 80 86 91 89 86 72 49 58 56 33 32 31 32 42 43 42
74 66 61 60 53 48 57 50 50 49 48 43 41 39 37 35 34 32 30 28 26 25 28 35 55 84 89 88 90 91 86 84 87 85 85 88 89 89 76 61 44 52 37 30 30 34 41 45 47
62 58 54 51 50 48 46 51 50 46 42 41 40 39 37 35 34 33 31 29 27 26 24 28 32 44 65 88 89 89 91 88 85 87 85 89 88 87 83 69 67 35 37 30 30 36 42 44 48
61 61 58 51 50 48 54 51 49 44 39 38 38 36 35 34 31 30 28 26 24 23 25 24 27 32 42 61 89 89 90 90 90 91 82 81 82 86 90 72 79 41 30 28 32 37 39 44 47
59 65 63 55 49 55 47 55 55 41 36 39 36 34 31 26 23 20 18 18 18 17 19 23 24 26 32 42 55 88 90 90 94 88 81 76 72 80 86 78 83 67 32 28 36 43 46 48 52
70 68 76 45 50 44 40 44 38 25 29 34 31 29 29 26 24 23 18 22 22 20 16 16 20 22 26 33 43 54 91 90 91 93 87 81 78 77 88 87 72 79 46 29 38 42 48 53 53
79 86 77 66 50 53 56 64 49 40 40 39 39 39 38 37 34 31 27 22 23 23 22 19 16 17 22 27 34 44 54 94 90 96 93 87 82 78 90 85 84 73 56 30 42 45 50 58 61
76 90 76 86 55 55 66 65 52 48 50 50 48 47 46 45 40 32 34 32 29 26 23 24 22 18 17 21 32 40 46 73 96 96 95 91 86 80 79 85 94 78 63 32 43 46 52 62 72
66 77 89 78 64 72 75 72 60 48 48 48 48 48 46 44 44 47 43 39 36 34 31 23 24 26 19 20 32 49 42 49 83 99 94 95 89 81 80 90 91 90 72 35 40 49 55 73 82
84 95 89 77 64 72 66 68 57 57 61 54 53 54 59 66 68 66 64 56 46 37 32 23 22 32 25 25 30 52 39 39 58 61 79 99 96 86 80 83 89 94 80 48 40 52 65 81 81
91 98 93 88 72 70 78 81 64 49 61 61 66 72 81 78 75 77 68 61 56 44 36 29 20 28 36 32 33 51 49 45 48 48 74 86 81 80 89 84 88 89 86 66 39 57 64 67 77
95 75 81 86 91 99 70 94 73 59 76 72 66 67 79 90 91 90 77 65 60 42 42 37 22 24 28 32 36 35 50 51 52 45 55 64 80 86 76 84 90 87 98 80 47 57 64 72 72
77 65 72 82 97 98 87 96 79 67 82 79 70 70 79 87 93 96 77 67 67 45 42 30 19 22 28 33 33 35 36 41 50 43 39 57 72 89 78 78 81 86 97 81 67 54 62 70 74
58 84 89 96 99 94 80 90 84 82 91 78 71 74 78 83 86 93 80 75 57 41 36 36 30 25 38 39 35 39 33 37 53 41 44 51 73 85 84 91 95 78 97 94 72 60 60 66 75
95 96 96 98 97 93 90 96 81 67 74 74 76 75 84 91 92 89 93 79 64 45 40 40 38 41 47 38 39 43 37 37 49 34 40 50 72 89 99 99 99 98 94 93 76 75 65 64 77
99 96 96 97 97 92 86 96 77 78 65 76 82 90 90 93 95 83 86 83 75 64 54 54 50 49 48 40 38 42 35 42 59 50 51 55 64 66 99 98 99 94 100 87 85 88 77 71 80
97 97 94 98 92 98 93 78 62 65 73 81 84 92 96 98 94 88 78 77 74 70 65 61 55 55 46 39 44 52 59 55 51 64 59 68 74 78 99 90 97 89 89 92 80 59 55 78 78
99 97 98 99 93 96 88 92 95 92 96 93 94 95 98 98 98 99 89 78 68 65 61 57 58 60 41 36 43 49 50 47 53 59 58 55 78 85 95 99 93 92 87 81 61 46 40 80 79
98 100 99 98 90 96 92 89 86 98 98 98 96 98 99 100 99 99 83 81 80 83 76 68 61 60 59 47 38 44 51 60 61 60 58 60 97 92 98 95 100 99 98 94 85 81 76 89 79
82 91 84 91 83 92 96 88 66 81 96 98 97 99 100 100 100 95 91 90 84 86 85 85 80 78 72 69 70 70 72 73 67 67 77 80 81 89 99 98 96 99 97 90 69 86 79 90 85

GFSSGP_850_rhum_135.txt.gz
RH
32 50 57 48 42 43 42 42 64 52 46 39 24 24 26 25 25 40 92 92 96 97 75 71 86 75 79 71 72 78 78 76 75 76 74 58 29 25 38 30 68 82 84 86 85 77 73 65 51
45 59 57 45 33 26 16 53 62 43 29 23 22 22 25 40 75 78 92 89 90 94 88 66 85 75 75 75 69 72 77 79 79 76 64 52 46 76 63 46 74 77 79 85 79 62 65 56 42
55 58 45 44 41 22 18 49 49 36 24 23 21 23 49 49 60 59 74 90 91 94 96 71 85 77 65 68 65 72 84 76 76 69 64 52 53 56 60 54 72 77 79 84 76 62 57 52 44
58 51 48 40 32 38 35 46 36 30 26 24 22 27 40 36 40 69 78 98 99 98 95 86 79 76 66 64 63 65 66 65 69 69 66 56 36 47 37 72 76 79 77 78 67 57 53 37 42
53 40 58 49 42 49 49 42 37 31 29 28 23 23 59 33 35 67 98 99 99 99 99 90 79 76 76 69 68 65 62 61 63 68 69 61 36 37 56 72 76 78 74 64 60 54 35 39 35
49 46 46 33 41 53 50 43 40 31 31 28 25 26 47 31 35 44 73 98 100 99 99 92 81 79 79 78 72 67 64 65 69 69 71 66 36 46 58 70 64 61 58 54 48 37 37 37 35
59 48 41 48 43 45 43 41 33 34 34 30 27 25 32 30 29 30 38 89 96 100 100 100 92 86 87 84 79 72 69 70 81 73 77 76 55 71 78 86 73 60 48 43 34 36 38 36 36
49 57 69 64 40 38 47 41 37 36 35 30 28 27 26 29 27 27 26 56 90 93 97 99 98 96 91 88 83 79 76 75 73 76 83 82 79 70 68 81 82 56 39 35 33 35 36 42 38
56 66 64 50 57 42 50 47 45 44 43 37 32 29 29 28 26 25 25 26 71 87 90 90 93 96 93 92 88 82 79 77 75 80 89 86 86 79 60 66 74 65 33 32 36 36 38 44 39
63 59 60 59 59 54 54 53 51 47 45 42 38 34 33 32 30 27 25 24 23 52 78 86 90 94 97 95 92 88 84 82 80 82 89 86 87 83 65 59 70 66 36 31 37 35 44 42 37
68 64 65 58 57 57 62 60 52 51 52 46 41 35 32 29 28 30 28 27 25 23 33 59 80 90 92 94 94 90 89 88 85 81 85 87 90 86 79 61 80 74 39 34 37 36 43 43 38
70 67 62 60 53 51 52 50 52 49 46 41 40 38 35 30 28 28 26 27 27 25 23 28 46 70 88 92 95 92 90 88 88 87 87 89 91 88 87 68 55 73 39 33 30 33 44 44 43
65 60 56 52 52 50 49 54 50 49 44 42 41 40 40 36 33 30 29 28 27 26 24 23 26 39 58 83 89 93 95 91 88 87 89 89 91 88 87 78 56 63 52 34 32 34 43 45 42
60 60 58 52 50 50 53 49 51 42 36 35 35 35 34 34 30 30 28 26 23 23 23 23 23 25 33 51 76 87 93 94 91 88 90 89 82 84 84 79 65 54 62 42 32 33 42 45 49
60 62 59 53 52 52 50 43 58 36 37 37 34 28 30 27 23 21 18 17 14 13 16 19 22 22 24 30 45 74 91 92 94 89 88 89 85 78 79 80 75 69 48 49 35 32 46 52 53
65 60 54 42 50 43 35 37 35 33 39 38 35 34 33 32 32 31 30 28 24 18 16 14 14 18 21 23 29 44 71 93 96 95 90 90 87 80 76 77 84 75 66 38 33 32 41 49 53
68 65 64 55 50 51 53 53 50 39 40 43 44 44 44 42 39 38 33 32 31 27 21 17 18 14 14 20 22 29 45 67 98 94 94 96 92 86 81 72 76 82 80 53 30 32 41 46 52
65 72 70 72 52 56 63 63 52 49 52 52 51 49 48 45 42 39 43 39 34 32 30 25 19 19 16 14 18 22 30 45 60 97 94 98 95 90 88 82 76 86 87 85 40 32 42 48 55
67 77 87 75 60 72 72 67 59 51 53 54 54 50 55 58 59 57 55 57 57 46 34 30 28 21 22 22 17 18 24 33 45 74 93 93 97 91 92 88 79 84 90 84 65 33 45 51 68
81 92 84 70 65 67 66 67 57 57 58 54 58 63 64 66 68 68 67 68 62 54 50 40 29 26 19 23 23 18 19 27 35 46 86 96 97 98 93 91 80 78 86 94 82 36 44 56 70
86 95 91 81 73 68 77 69 57 50 57 59 64 64 67 70 74 80 79 82 76 61 51 45 34 26 21 21 26 25 22 29 44 42 76 92 99 98 97 97 83 80 81 90 86 54 39 48 64
98 73 79 84 92 96 65 91 68 57 57 58 63 68 71 72 75 77 76 70 78 62 54 47 40 30 21 21 27 30 28 32 58 45 48 75 73 84 95 95 90 82 83 86 90 81 38 49 55
78 68 73 77 96 96 83 95 74 60 70 70 62 67 71 74 79 84 78 71 79 70 61 50 41 40 28 21 25 36 36 34 47 58 46 47 48 81 81 93 88 82 83 82 86 94 54 44 59
61 82 89 92 97 97 77 89 84 69 79 69 63 72 76 80 87 89 78 74 80 71 76 57 45 41 32 22 24 29 32 36 36 49 53 49 46 75 90 94 92 84 84 80 84 92 88 50 65
86 94 95 95 97 87 86 96 80 64 69 67 73 81 86 91 94 94 90 77 79 78 82 55 39 35 31 23 24 26 30 31 33 31 41 55 54 82 97 93 96 97 94 73 82 87 91 70 64
97 90 93 98 93 88 85 94 77 65 64 69 79 89 95 98 98 96 91 82 76 75 72 54 45 41 31 26 23 26 32 38 53 36 33 47 51 48 70 95 88 94 86 87 82 90 100 80 58
95 99 76 96 85 94 86 77 64 64 71 83 90 94 98 98 99 98 98 79 71 64 62 54 48 50 46 41 42 48 49 45 42 47 36 47 49 48 46 98 96 95 99 89 82 92 100 82 71
95 87 98 97 96 92 77 87 94 93 96 94 94 97 98 99 99 94 96 72 73 63 61 68 62 54 54 48 51 55 51 46 44 39 39 50 55 58 62 66 94 98 98 99 99 96 99 97 75
93 95 96 99 89 92 87 82 94 98 98 99 96 100 100 100 100 100 100 89 76 73 76 72 65 61 59 54 63 55 54 45 57 54 53 60 57 56 59 62 79 87 98 100 100 98 100 95 69
82 93 98 95 81 89 92 84 66 74 95 97 97 99 99 100 100 99 100 99 100 95 96 99 91 75 65 63 68 64 51 50 64 59 58 53 60 58 53 51 63 78 97 99 100 100 99 100 99